Hourly Data Report for October 14, 2017

All times are specified in Local Standard Time (LST). Add 1 hour to adjust for Daylight Saving Time where and when it is observed.

POWELL RIVER
BRITISH COLUMBIA

49°50'04.400" N
124°29'48.500" W
125.00 m
1046392
71720
VOP

Download Data

Hourly Data (October 2017)
Hourly Data Report for October 14, 2017
Temp Definition
°C
Dew Point Temp Definition
°C
Rel Hum Definition
%
Wind Dir Definition
10's deg

Wind Spd Definition
km/h
Visibility Definition
km
Stn Press Definition
kPa
Hmdx Definition


Wind Chill Definition


Weather Definition


TIME
00:00 2.0 1.3 95 LegendMM LegendMM   101.37     LegendNANA
01:00 3.6 2.8 94 LegendMM LegendMM   101.41     LegendNANA
02:00 4.0 3.2 95 LegendMM LegendMM   101.41     LegendNANA
03:00 5.1 4.1 93 LegendMM LegendMM   101.44     LegendNANA
04:00 7.4 5.3 86 LegendMM LegendMM   101.47     LegendNANA
05:00 7.5 5.0 84 LegendMM LegendMM   101.49     LegendNANA
06:00 7.6 5.2 85 LegendMM LegendMM   101.50     LegendNANA
07:00 7.7 5.3 85 LegendMM LegendMM   101.51     LegendNANA
08:00 7.8 5.6 86 LegendMM LegendMM   101.54     LegendNANA
09:00 7.9 5.7 86 LegendMM LegendMM   101.57     LegendNANA
10:00 7.7 5.6 86 LegendMM LegendMM   101.58     LegendNANA
11:00 7.8 5.8 87 LegendMM LegendMM   101.59     LegendNANA
12:00 8.5 4.7 77 LegendMM LegendMM   101.59     LegendNANA
13:00 8.6 4.5 76 LegendMM LegendMM   101.56     LegendNANA
14:00 8.7 4.1 73 LegendMM LegendMM   101.55     LegendNANA
15:00 8.8 3.8 71 LegendMM LegendMM   101.55     LegendNANA
16:00 7.7 4.5 80 LegendMM LegendMM   101.57     LegendNANA
17:00 6.8 5.5 91 LegendMM LegendMM   101.57     LegendNANA
18:00 6.6 5.7 94 LegendMM LegendMM   101.60     LegendNANA
19:00 6.7 6.0 95 LegendMM LegendMM   101.60     LegendNANA
20:00 6.9 6.2 95 LegendMM LegendMM   101.57     LegendNANA
21:00 7.0 6.2 95 LegendMM LegendMM   101.59     LegendNANA
22:00 7.4 6.5 94 LegendMM LegendMM   101.56     LegendNANA
23:00 7.3 6.4 94 LegendMM LegendMM   101.57     LegendNANA

Notes on Data Quality.

Legend

  • E = Estimated
  • M = Missing
  • NA = Not Available
  • ‡ = Partner data that is not subject to review by the National Climate Archives
Date modified: